Language: 


Des rapports , des résumés tant et plus, au choix de chacun....


Données statistiques de la station
Quotidien Rapport Décembre 11, 2017 Unités:  Anglais    Métrique   les deux
« Précédent Jour
Suivant Jour »
Quotidien Hebdomadaire Mensuel Annuel Actuel
  Haut: Bas: Moyen:
Température: TemperatureC °F 0.0 °F 1.9 °F
Pt de rosée: DewpointC °F 1.0 °F 1.9 °F
Humidité: Humidity % 0 % 97 %
Vitesse du vent: WindSpeedKMH mph 0.0 mph 15 mph
Rafales: WindSpeedGustKMH mph - -
Vent:- - SSE
Pression: PressurehPa in 971.1 in -
Précipitation: 19.6 in    
Historical Graphs
 
 
Données statistiques pour Décembre 11, 2017
Heure Température Point de rosée Pression Vent Vitesse du vent Refales Humidité Pluie (taux horaire)
TemperatureC °F DewpointC °F PressurehPa in Calm     Humidity % HourlyPrecipMM in
00:00 1.7 °F 1.0 °F 981.9 in Calm     93 % 0.0 in
00:05 1.6 °F 1.0 °F 981.9 in Calm     93 % 0.0 in
00:10 1.5 °F 1.0 °F 981.9 in Calm     93 % 0.0 in
00:20 1.4 °F 1.0 °F 981.9 in Calm     94 % 0.0 in
00:25 1.3 °F 1.0 °F 981.9 in Calm     94 % 0.0 in
00:35 1.3 °F 1.0 °F 981.9 in Calm     95 % 0.0 in
00:41 1.2 °F 1.0 °F 981.9 in Calm     95 % 0.0 in
00:45 1.1 °F 1.0 °F 981.9 in Calm     95 % 0.0 in
00:51 1.0 °F 1.0 °F 981.9 in Calm     95 % 0.0 in
01:01 1.1 °F 1.0 °F 980.9 in Calm     96 % 0.0 in
01:06 1.2 °F 1.0 °F 980.9 in Calm     97 % 0.0 in
01:21 1.4 °F 1.0 °F 980.9 in Calm     98 % 0.0 in
01:26 1.4 °F 1.0 °F 980.9 in Calm     98 % 0.0 in
01:31 1.4 °F 1.0 °F 980.9 in Calm     98 % 0.0 in
01:36 1.4 °F 1.0 °F 980.9 in Calm     98 % 0.0 in
01:41 1.5 °F 2.0 °F 979.9 in Calm     98 % 0.0 in
01:46 1.5 °F 2.0 °F 979.9 in Calm     98 % 0.0 in
01:56 1.6 °F 2.0 °F 979.9 in Calm     98 % 0.0 in
02:01 1.6 °F 2.0 °F 979.9 in Calm     98 % 0.0 in
02:06 1.7 °F 2.0 °F 979.9 in Calm     98 % 0.0 in
02:11 1.7 °F 2.0 °F 980.9 in Calm     98 % 0.0 in
02:16 1.6 °F 2.0 °F 980.9 in Calm     98 % 0.0 in
02:21 1.6 °F 2.0 °F 980.9 in Calm     98 % 0.0 in
02:26 1.7 °F 2.0 °F 980.9 in Calm     98 % 0.0 in
02:36 1.8 °F 2.0 °F 980.9 in Calm     98 % 0.0 in
02:41 1.9 °F 2.0 °F 980.9 in Calm     98 % 0.0 in
02:51 2.0 °F 2.0 °F 980.9 in Calm     98 % 0.0 in
03:01 0.0 °F 2.0 °F 980.9 in Calm     0 % 0.0 in
03:17 2.3 °F 3.0 °F 980.9 in Calm     98 % 0.0 in
03:32 2.4 °F 3.0 °F 981.9 in Calm     98 % 0.0 in
03:42 2.3 °F 3.0 °F 980.9 in Calm     98 % 0.0 in
03:57 2.4 °F 3.0 °F 980.9 in Calm     98 % 0.0 in
04:02 2.4 °F 3.0 °F 980.9 in Calm     98 % 0.0 in
04:22 2.5 °F 3.0 °F 978.9 in Calm     98 % 0.0 in
04:32 2.6 °F 3.0 °F 978.9 in Calm     98 % 0.0 in
04:37 2.7 °F 3.0 °F 978.9 in Calm     98 % 0.0 in
04:43 2.8 °F 3.0 °F 978.9 in Calm     98 % 0.0 in
04:48 2.8 °F 3.0 °F 978.9 in Calm     98 % 0.0 in
05:03 3.0 °F 3.0 °F 977.9 in Calm     98 % 0.0 in
05:08 3.0 °F 3.0 °F 977.9 in Calm     98 % 0.0 in
05:13 3.1 °F 3.0 °F 977.9 in Calm     98 % 0.0 in
05:23 3.2 °F 3.0 °F 977.9 in Calm     98 % 0.0 in
05:25 3.2 °F 3.0 °F 977.9 in Calm     98 % 0.0 in
05:30 3.3 °F 3.0 °F 976.2 in Calm     98 % 0.0 in
05:35 3.3 °F 3.0 °F 976.2 in Calm     98 % 0.0 in
05:40 3.3 °F 3.0 °F 976.2 in Calm     98 % 0.0 in
05:45 3.3 °F 3.0 °F 976.9 in Calm     98 % 0.0 in
05:50 3.3 °F 3.0 °F 976.9 in Calm     98 % 0.0 in
05:55 3.3 °F 3.0 °F 976.9 in Calm     98 % 0.0 in
06:00 3.3 °F 3.0 °F 976.9 in Calm     98 % 0.0 in
06:10 3.4 °F 3.0 °F 976.9 in Calm     98 % 0.0 in
06:15 3.4 °F 3.0 °F 976.9 in Calm     98 % 0.0 in
06:20 3.4 °F 3.0 °F 976.9 in Calm     98 % 0.0 in
06:30 3.5 °F 4.0 °F 976.2 in Calm     98 % 0.0 in
06:35 3.5 °F 4.0 °F 976.2 in Calm     98 % 0.0 in
06:40 3.6 °F 4.0 °F 976.2 in Calm     98 % 0.0 in
06:45 3.6 °F 4.0 °F 976.2 in Calm     98 % 0.0 in
06:50 3.6 °F 4.0 °F 976.2 in Calm     98 % 0.0 in
07:00 3.6 °F 4.0 °F 976.2 in Calm     98 % 0.3 in
07:05 3.6 °F 4.0 °F 976.2 in Calm     98 % 0.3 in
07:10 3.5 °F 4.0 °F 975.2 in Calm     98 % 0.3 in
07:16 3.5 °F 4.0 °F 975.2 in Calm     98 % 0.5 in
07:21 3.5 °F 4.0 °F 975.2 in Calm     98 % 0.5 in
07:31 3.4 °F 3.0 °F 975.2 in ENE 19.1 mph 19.1 mph 98 % 1.3 in
07:46 3.3 °F 3.0 °F 975.2 in NE 19.1 mph 19.1 mph 98 % 1.8 in
07:51 3.2 °F 3.0 °F 975.2 in ENE 21.2 mph 24.8 mph 98 % 2.3 in
07:56 3.1 °F 3.0 °F 975.2 in ENE 15.4 mph 24.8 mph 98 % 1.8 in
08:06 3.0 °F 3.0 °F 975.2 in ENE 16.3 mph 20.9 mph 98 % 2.3 in
08:11 3.0 °F 3.0 °F 975.2 in ENE 20.1 mph 24.8 mph 98 % 2.5 in
08:16 3.0 °F 3.0 °F 975.2 in ENE 19.5 mph 28.0 mph 98 % 2.3 in
08:21 2.9 °F 3.0 °F 975.2 in ENE 19.1 mph 32.0 mph 98 % 2.3 in
08:26 2.8 °F 3.0 °F 975.2 in ENE 20.1 mph 36.0 mph 98 % 2.5 in
08:31 2.8 °F 3.0 °F 975.2 in NE 20.9 mph 36.0 mph 98 % 2.5 in
08:36 2.7 °F 3.0 °F 975.2 in NE 16.3 mph 27.4 mph 98 % 2.3 in
08:41 2.6 °F 3.0 °F 975.2 in ENE 22.4 mph 27.0 mph 98 % 2.5 in
08:46 2.3 °F 3.0 °F 975.2 in ENE 21.6 mph 27.0 mph 98 % 2.5 in
08:51 2.1 °F 2.0 °F 975.2 in NE 23.0 mph 37.5 mph 98 % 2.5 in
09:01 1.6 °F 2.0 °F 975.2 in NE 26.7 mph 39.3 mph 98 % 3.0 in
09:07 1.5 °F 2.0 °F 975.2 in NE 25.9 mph 39.3 mph 98 % 3.0 in
09:12 1.3 °F 1.0 °F 975.2 in NE 19.5 mph 30.6 mph 98 % 3.3 in
09:17 1.2 °F 1.0 °F 975.2 in NE 19.1 mph 30.6 mph 98 % 3.0 in
09:22 1.1 °F 1.0 °F 975.2 in ENE 17.2 mph 28.0 mph 98 % 3.3 in
09:27 1.1 °F 1.0 °F 975.2 in ENE 22.7 mph 27.7 mph 98 % 3.0 in
09:37 1.0 °F 1.0 °F 975.2 in NE 16.9 mph 25.9 mph 98 % 2.8 in
09:42 0.9 °F 1.0 °F 975.2 in ENE 21.6 mph 30.9 mph 98 % 2.5 in
09:47 0.9 °F 1.0 °F 975.2 in ENE 16.6 mph 30.9 mph 98 % 1.8 in
09:52 0.9 °F 1.0 °F 975.2 in ENE 15.4 mph 24.8 mph 98 % 1.5 in
09:54 0.9 °F 1.0 °F 975.2 in ENE 15.8 mph 24.8 mph 98 % 1.5 in
10:04 0.9 °F 1.0 °F 974.2 in ENE 21.2 mph 29.9 mph 98 % 0.5 in
10:09 0.9 °F 1.0 °F 974.2 in ENE 20.6 mph 32.8 mph 98 % 0.3 in
10:14 0.9 °F 1.0 °F 975.2 in NE 31.7 mph 32.8 mph 98 % 0.3 in
10:19 0.9 °F 1.0 °F 975.2 in NE 21.9 mph 31.7 mph 98 % 0.3 in
10:25 1.0 °F 1.0 °F 975.2 in NNE 38.1 mph 38.1 mph 98 % 0.0 in
10:30 1.0 °F 1.0 °F 972.1 in East 16.6 mph 38.5 mph 98 % 0.0 in
10:35 1.0 °F 1.0 °F 972.1 in NE 41.0 mph 41.0 mph 98 % 0.0 in
10:50 1.0 °F 1.0 °F 973.1 in NE 38.1 mph 47.9 mph 98 % 0.3 in
10:55 1.1 °F 1.0 °F 973.1 in ENE 28.5 mph 47.9 mph 98 % 0.5 in
11:00 1.1 °F 1.0 °F 973.1 in NE 30.9 mph 45.7 mph 98 % 0.5 in
11:05 1.1 °F 1.0 °F 973.1 in NE 35.6 mph 45.7 mph 98 % 1.0 in
11:10 1.1 °F 1.0 °F 973.1 in NE 22.7 mph 42.8 mph 98 % 1.0 in
11:20 1.1 °F 1.0 °F 974.2 in ENE 20.6 mph 30.6 mph 98 % 1.3 in
11:25 1.1 °F 1.0 °F 974.2 in East 20.6 mph 30.6 mph 98 % 1.3 in
11:30 1.2 °F 1.0 °F 973.1 in ENE 21.2 mph 32.0 mph 98 % 1.3 in
11:35 1.2 °F 1.0 °F 973.1 in NE 26.2 mph 32.0 mph 98 % 1.5 in
11:40 1.1 °F 1.0 °F 973.1 in ENE 23.8 mph 39.6 mph 98 % 1.5 in
11:45 1.1 °F 1.0 °F 973.1 in ENE 21.2 mph 39.6 mph 98 % 1.3 in
11:50 1.1 °F 1.0 °F 973.1 in ENE 25.9 mph 32.0 mph 98 % 1.5 in
11:55 1.2 °F 1.0 °F 973.1 in ENE 19.8 mph 35.6 mph 98 % 1.3 in
12:00 1.2 °F 1.0 °F 973.1 in ENE 23.8 mph 35.6 mph 98 % 1.3 in
12:05 1.2 °F 1.0 °F 973.1 in ENE 27.0 mph 35.2 mph 98 % 0.8 in
12:10 1.1 °F 1.0 °F 972.1 in NE 27.0 mph 35.2 mph 98 % 1.3 in
12:15 1.1 °F 1.0 °F 972.1 in NNE 20.6 mph 29.1 mph 98 % 0.8 in
12:25 1.1 °F 1.0 °F 973.1 in NE 19.8 mph 24.8 mph 98 % 0.8 in
12:30 1.1 °F 1.0 °F 973.1 in NE 27.7 mph 33.1 mph 98 % 1.3 in
12:35 1.2 °F 1.0 °F 973.1 in NE 31.4 mph 33.1 mph 98 % 1.3 in
12:40 1.2 °F 1.0 °F 972.1 in NE 15.8 mph 32.0 mph 98 % 1.3 in
12:45 1.2 °F 1.0 °F 972.1 in ENE 24.8 mph 32.0 mph 98 % 1.5 in
12:50 1.2 °F 1.0 °F 972.1 in NE 20.6 mph 37.0 mph 98 % 1.3 in
12:55 1.1 °F 1.0 °F 972.1 in NE 30.2 mph 37.0 mph 98 % 1.3 in
13:06 1.1 °F 1.0 °F 972.1 in NE 21.2 mph 39.6 mph 98 % 1.5 in
13:11 1.1 °F 1.0 °F 971.1 in ENE 27.7 mph 39.6 mph 98 % 1.3 in
13:16 1.1 °F 1.0 °F 971.1 in NE 32.8 mph 32.8 mph 98 % 1.3 in
13:21 1.2 °F 1.0 °F 971.1 in NE 17.2 mph 40.4 mph 98 % 1.5 in
13:26 1.2 °F 1.0 °F 971.1 in NE 23.8 mph 40.4 mph 98 % 1.3 in
13:31 1.2 °F 1.0 °F 971.1 in ENE 23.8 mph 32.0 mph 98 % 1.5 in
13:36 1.2 °F 1.0 °F 971.1 in NE 25.3 mph 32.0 mph 98 % 1.3 in
13:41 1.2 °F 1.0 °F 972.1 in ENE 16.6 mph 31.7 mph 98 % 1.5 in
13:46 1.2 °F 1.0 °F 972.1 in ENE 27.7 mph 38.1 mph 98 % 1.3 in
13:51 1.2 °F 1.0 °F 972.1 in NE 41.4 mph 41.4 mph 98 % 1.3 in
14:01 1.1 °F 1.0 °F 971.1 in NE 32.8 mph 40.7 mph 98 % 0.8 in
14:06 1.1 °F 1.0 °F 971.1 in NE 31.4 mph 40.7 mph 98 % 0.8 in
14:11 1.1 °F 1.0 °F 971.1 in NNE 32.0 mph 40.4 mph 98 % 0.8 in
14:16 1.1 °F 1.0 °F 971.1 in NE 25.6 mph 40.4 mph 98 % 0.8 in
14:22 1.1 °F 1.0 °F 971.1 in NE 20.6 mph 42.5 mph 98 % 0.5 in
14:27 1.1 °F 1.0 °F 972.1 in NE 31.7 mph 42.5 mph 98 % 0.3 in
14:32 1.1 °F 1.0 °F 972.1 in NE 37.5 mph 39.6 mph 98 % 0.3 in
14:37 1.1 °F 1.0 °F 972.1 in NNE 36.7 mph 39.6 mph 98 % 0.0 in
14:42 1.1 °F 1.0 °F 972.1 in NNE 17.2 mph 36.7 mph 98 % 0.0 in
14:47 1.1 °F 1.0 °F 972.1 in NE 30.9 mph 36.7 mph 98 % 0.0 in
14:52 1.0 °F 1.0 °F 972.1 in NE 17.2 mph 32.0 mph 98 % 0.0 in
15:02 1.0 °F 1.0 °F 972.1 in NE 20.9 mph 38.9 mph 98 % 0.0 in
15:07 1.0 °F 1.0 °F 972.1 in NE 27.7 mph 38.9 mph 98 % 0.0 in
15:08 1.0 °F 1.0 °F 972.1 in NNE 27.4 mph 37.8 mph 98 % 0.0 in
15:13 0.9 °F 1.0 °F 973.1 in NNE 41.0 mph 41.0 mph 98 % 0.0 in
15:18 0.9 °F 1.0 °F 973.1 in NE 29.9 mph 41.0 mph 98 % 0.0 in
15:23 0.9 °F 1.0 °F 973.1 in NNE 28.5 mph 36.4 mph 98 % 0.0 in
15:28 0.9 °F 1.0 °F 973.1 in North 27.7 mph 32.8 mph 98 % 0.0 in
15:33 0.9 °F 1.0 °F 973.1 in NE 24.5 mph 31.7 mph 98 % 0.0 in
15:38 0.9 °F 1.0 °F 973.1 in NNW 31.4 mph 37.0 mph 98 % 0.0 in
15:43 0.9 °F 1.0 °F 973.1 in North 27.7 mph 37.0 mph 98 % 0.0 in
15:48 0.9 °F 1.0 °F 973.1 in NE 26.2 mph 43.1 mph 98 % 0.0 in
15:53 1.0 °F 1.0 °F 973.1 in North 28.5 mph 43.1 mph 98 % 0.0 in
15:58 1.0 °F 1.0 °F 973.1 in NNE 37.8 mph 41.7 mph 98 % 0.0 in
16:03 1.0 °F 1.0 °F 973.1 in ENE 36.7 mph 41.4 mph 98 % 0.0 in
16:08 1.0 °F 1.0 °F 973.1 in NE 28.5 mph 41.4 mph 98 % 0.0 in
16:14 1.0 °F 1.0 °F 974.2 in NNE 41.0 mph 41.0 mph 98 % 3.0 in
16:24 1.0 °F 1.0 °F 974.2 in NE 37.5 mph 41.0 mph 98 % 3.0 in
16:29 1.0 °F 1.0 °F 975.2 in NNE 18.0 mph 37.5 mph 98 % 3.0 in
16:34 1.0 °F 1.0 °F 975.2 in North 16.6 mph 36.0 mph 98 % 3.0 in
16:39 1.0 °F 1.0 °F 975.2 in ENE 19.5 mph 36.0 mph 98 % 3.0 in
16:50 1.0 °F 1.0 °F 975.2 in NE 36.7 mph 40.7 mph 98 % 3.0 in
17:00 1.0 °F 1.0 °F 976.2 in NNE 31.4 mph 39.6 mph 98 % 3.0 in
17:05 1.0 °F 1.0 °F 976.2 in North 23.8 mph 39.3 mph 98 % 3.0 in
17:15 1.0 °F 1.0 °F 977.9 in NNE 16.9 mph 40.7 mph 98 % 0.0 in
17:20 1.1 °F 1.0 °F 977.9 in North 10.5 mph 31.7 mph 98 % 0.5 in
17:25 1.1 °F 1.0 °F 977.9 in North 24.5 mph 35.2 mph 98 % 0.5 in
17:30 1.1 °F 1.0 °F 976.9 in NNE 23.8 mph 40.4 mph 98 % 0.5 in
17:35 1.1 °F 1.0 °F 976.9 in NNE 36.4 mph 40.4 mph 98 % 0.8 in
17:40 1.2 °F 1.0 °F 976.9 in North 21.9 mph 40.7 mph 98 % 0.8 in
17:45 1.2 °F 1.0 °F 977.9 in North 32.8 mph 40.7 mph 98 % 0.8 in
17:50 1.3 °F 1.0 °F 977.9 in NNE 28.5 mph 35.2 mph 98 % 1.3 in
17:55 1.3 °F 1.0 °F 977.9 in North 31.4 mph 31.7 mph 98 % 1.3 in
18:05 1.4 °F 1.0 °F 977.9 in NNW 31.4 mph 41.0 mph 98 % 1.8 in
18:11 1.5 °F 2.0 °F 978.9 in NW 21.6 mph 41.0 mph 98 % 1.8 in
18:16 1.5 °F 2.0 °F 978.9 in North 13.0 mph 31.4 mph 98 % 1.8 in
18:26 1.6 °F 2.0 °F 979.9 in North 35.6 mph 36.0 mph 98 % 1.5 in
18:31 1.7 °F 2.0 °F 979.9 in North 20.1 mph 35.6 mph 98 % 1.5 in
18:36 1.8 °F 2.0 °F 979.9 in North 24.8 mph 35.6 mph 98 % 1.5 in
18:41 1.9 °F 2.0 °F 980.9 in North 25.9 mph 35.6 mph 98 % 1.5 in
18:46 1.9 °F 2.0 °F 980.9 in NNE 28.5 mph 38.5 mph 98 % 1.8 in
19:06 2.1 °F 2.0 °F 980.9 in NE 13.7 mph 37.0 mph 98 % 1.3 in
19:11 2.1 °F 2.0 °F 980.9 in NNW 20.1 mph 37.5 mph 98 % 1.5 in
19:16 2.1 °F 2.0 °F 980.9 in NNE 19.8 mph 37.5 mph 98 % 1.3 in
19:21 2.1 °F 2.0 °F 980.9 in North 31.7 mph 31.7 mph 98 % 1.3 in
19:26 2.1 °F 2.0 °F 981.9 in North 16.6 mph 41.0 mph 98 % 1.3 in
19:31 2.2 °F 2.0 °F 981.9 in NNE 17.7 mph 41.0 mph 98 % 1.3 in
19:36 2.2 °F 2.0 °F 981.9 in NNW 27.7 mph 31.4 mph 98 % 1.3 in
19:52 2.3 °F 3.0 °F 983.0 in NNW 20.1 mph 23.8 mph 98 % 1.3 in
19:57 2.3 °F 3.0 °F 983.0 in NNE 18.0 mph 28.0 mph 98 % 1.0 in
20:02 2.3 °F 3.0 °F 983.0 in North 13.7 mph 29.1 mph 98 % 1.0 in
20:12 2.3 °F 3.0 °F 983.0 in North 17.2 mph 25.9 mph 98 % 0.8 in
20:17 2.3 °F 3.0 °F 983.0 in North 13.0 mph 25.9 mph 98 % 1.0 in
20:27 2.3 °F 3.0 °F 984.0 in North 13.0 mph 23.8 mph 98 % 0.8 in
20:30 2.3 °F 3.0 °F 984.0 in North 16.9 mph 23.8 mph 98 % 0.8 in
20:35 2.4 °F 3.0 °F 984.0 in North 13.7 mph 20.9 mph 98 % 0.8 in
20:40 2.4 °F 3.0 °F 984.0 in North 9.7 mph 23.0 mph 98 % 0.8 in
20:45 2.4 °F 3.0 °F 985.0 in NNW 4.7 mph 23.0 mph 98 % 0.3 in
20:50 2.4 °F 3.0 °F 985.0 in North 13.0 mph 20.1 mph 98 % 0.3 in
20:55 2.4 °F 3.0 °F 985.0 in NNE 19.8 mph 20.1 mph 98 % 0.5 in
21:00 2.4 °F 3.0 °F 985.0 in NNE 9.3 mph 19.8 mph 98 % 0.5 in
21:05 2.6 °F 3.0 °F 985.0 in North 9.0 mph 19.8 mph 98 % 0.5 in
21:10 2.8 °F 3.0 °F 987.0 in North 8.7 mph 14.0 mph 98 % 0.5 in
21:20 3.2 °F 3.0 °F 987.0 in North 12.2 mph 17.2 mph 98 % 0.3 in
21:31 3.4 °F 2.0 °F 987.0 in West 5.5 mph 17.2 mph 92 % 0.5 in
21:36 3.7 °F 2.0 °F 987.0 in NNW 6.1 mph 16.6 mph 90 % 0.5 in
21:41 3.6 °F 2.0 °F 987.0 in WNW 5.8 mph 13.7 mph 87 % 0.5 in
21:46 3.6 °F 2.0 °F 987.0 in NNW 7.6 mph 13.7 mph 87 % 0.5 in
21:51 3.8 °F 2.0 °F 987.0 in WNW 4.7 mph 12.6 mph 85 % 0.3 in
21:56 4.1 °F 2.0 °F 987.0 in NNW 6.9 mph 12.6 mph 85 % 0.3 in
22:01 3.7 °F 1.0 °F 987.0 in NNW 5.0 mph 12.6 mph 84 % 0.3 in
22:06 3.1 °F 1.0 °F 987.0 in NW 1.4 mph 12.2 mph 88 % 0.3 in
22:11 2.8 °F 2.0 °F 988.0 in WNW 1.8 mph 6.9 mph 91 % 0.3 in
22:17 2.7 °F 2.0 °F 988.0 in Calm   6.9 mph 92 % 0.3 in
22:26 2.7 °F 3.0 °F 989.1 in NW 8.7 mph 23.0 mph 96 % 0.3 in
22:31 2.6 °F 3.0 °F 989.1 in NW 1.8 mph 23.0 mph 96 % 0.3 in
22:32 2.6 °F 3.0 °F 989.1 in WNW 2.6 mph 23.0 mph 96 % 0.3 in
22:37 2.6 °F 3.0 °F 989.1 in Calm   9.7 mph 97 % 0.3 in
22:42 2.6 °F 3.0 °F 988.0 in NNW 5.5 mph 7.9 mph 97 % 0.3 in
22:47 2.5 °F 3.0 °F 988.0 in West 2.1 mph 7.9 mph 98 % 0.3 in
22:52 2.5 °F 3.0 °F 988.0 in Calm   13.0 mph 98 % 0.3 in
22:57 2.5 °F 3.0 °F 990.1 in NNW 5.0 mph 13.0 mph 98 % 0.3 in
23:02 2.5 °F 3.0 °F 990.1 in NW 6.4 mph 12.6 mph 98 % 0.3 in
23:07 2.6 °F 3.0 °F 990.1 in WNW 11.6 mph 17.2 mph 98 % 0.3 in
23:12 2.7 °F 3.0 °F 991.1 in NW 11.9 mph 17.2 mph 98 % 0.3 in
23:17 2.7 °F 3.0 °F 991.1 in NNW 14.0 mph 17.2 mph 98 % 0.5 in
23:35 2.8 °F 3.0 °F 991.1 in WNW 7.6 mph 16.6 mph 98 % 0.3 in
23:40 2.7 °F 3.0 °F 991.1 in NNW 2.6 mph 9.3 mph 98 % 0.5 in
23:45 2.7 °F 3.0 °F 991.1 in WSW 5.0 mph 9.3 mph 98 % 0.5 in
23:50 2.6 °F 3.0 °F 991.1 in West 5.8 mph 10.5 mph 98 % 0.5 in
23:55 2.5 °F 3.0 °F 991.1 in West 6.1 mph 10.5 mph 98 % 0.5 in
Le Gheer Warneton
Courtoisie de Weather Underground - 2 mb

Mise a jour : 18/02/2018 20:58:11
Généré par Cumulus 1.9.4 (1099)